Lakeland Region, FL

10:00 PM EST on November 20, 2017 (GMT -0500)
Lakeland Linder Regional

Weather History for KLAL - May, 2014

Change the Weather History Date:

Monday, May 12, 2014

  Actual Average Record
Temperature  
Mean Temperature 78 °F -  
Max Temperature 87 °F 85 °F 95 °F (2011)
Min Temperature 69 °F 65 °F 55 °F (1989)
Cooling Degree Days 13    
Growing Degree Days 28 (Base 50)    
Moisture  
Dew Point 65 °F    
Average Humidity 71    
Maximum Humidity 83    
Minimum Humidity 40    
Precipitation  
Precipitation 0.00 in - - ()
Sea Level Pressure  
Sea Level Pressure 30.11 in    
Wind  
Wind Speed 7 mph (East)    
Max Wind Speed 15 mph    
Max Gust Speed 22 mph    
Visibility 10 miles    
Events      
Averages and records for this station are not official NWS values.
T = Trace of Precipitation, MM = Missing Value Source: NWS Daily Summary

Daily Weather History Graph

Daily Weather History Graph

Search for Another Location

Airport or City:

Trip Planner

Search our weather history database for the weather conditions in past years. The results will help you decide how hot, cold, wet, or windy it might be!

Date:

Astronomy

May. 12, 2014 Rise Set
Actual Time 6:40 AM EDT 8:08 PM EDT
Civil Twilight 6:14 AM EDT 8:34 PM EDT
Nautical Twilight 5:44 AM EDT 9:04 PM EDT
Astronomical Twilight 5:13 AM EDT 9:36 PM EDT
Moon 6:15 PM EDT (5/12) 5:05 AM EDT (5/12)
Length of Visible Light 14h 19m
Length of Day
13h 28m
Waxing Gibbous, 95% of the Moon is Illuminated
May 12
Waxing Gibbous
May 14
Full
May 21
Last Quarter
May 28
New
Jun 5
First Quarter

Hourly Weather History & Observations

Time (EDT) Temp. Heat Index Dew Point Humidity Pressure Visibility Wind Dir Wind Speed Gust Speed Precip Events Conditions
12:15 AM 73.4 °F - 64.4 °F 73% 30.13 in 10.0 mi SE 9.2 mph - N/A   Clear
12:35 AM 73.4 °F - 64.4 °F 73% 30.13 in 10.0 mi ESE 6.9 mph - N/A   Clear
12:55 AM 71.6 °F - 64.4 °F 78% 30.13 in 10.0 mi ESE 6.9 mph - N/A   Clear
1:15 AM 71.6 °F - 64.4 °F 78% 30.13 in 10.0 mi ESE 8.1 mph - N/A   Scattered Clouds
1:35 AM 71.6 °F - 64.4 °F 78% 30.12 in 10.0 mi ESE 6.9 mph - N/A   Scattered Clouds
1:55 AM 71.6 °F - 64.4 °F 78% 30.12 in 10.0 mi ESE 6.9 mph - N/A   Scattered Clouds
2:15 AM 71.6 °F - 64.4 °F 78% 30.11 in 10.0 mi ESE 4.6 mph - N/A   Clear
2:35 AM 71.6 °F - 64.4 °F 78% 30.11 in 10.0 mi ESE 5.8 mph - N/A   Clear
2:55 AM 71.6 °F - 64.4 °F 78% 30.11 in 10.0 mi ESE 5.8 mph - N/A   Clear
3:15 AM 71.6 °F - 64.4 °F 78% 30.10 in 10.0 mi East 3.5 mph - N/A   Clear
3:35 AM 71.6 °F - 64.4 °F 78% 30.10 in 10.0 mi East 3.5 mph - N/A   Clear
3:55 AM 69.8 °F - 64.4 °F 83% 30.10 in 10.0 mi East 5.8 mph - N/A   Clear
4:15 AM 69.8 °F - 64.4 °F 83% 30.09 in 10.0 mi ESE 5.8 mph - N/A   Clear
4:35 AM 69.8 °F - 64.4 °F 83% 30.09 in 10.0 mi East 3.5 mph - N/A   Clear
4:55 AM 69.8 °F - 64.4 °F 83% 30.09 in 10.0 mi East 3.5 mph - N/A   Clear
5:15 AM 69.8 °F - 64.4 °F 83% 30.09 in 10.0 mi East 3.5 mph - N/A   Clear
5:35 AM 69.8 °F - 64.4 °F 83% 30.09 in 10.0 mi Calm Calm - N/A   Clear
5:55 AM 71.6 °F - 66.2 °F 83% 30.10 in 10.0 mi Calm Calm - N/A   Mostly Cloudy
6:58 AM 71.6 °F - 66.2 °F 83% 30.12 in 10.0 mi Calm Calm - N/A   Mostly Cloudy
7:51 AM 73.4 °F - 68.0 °F 83% 30.14 in 10.0 mi ENE 5.8 mph - N/A   Mostly Cloudy
8:54 AM 75.2 °F - 68.0 °F 78% 30.15 in 10.0 mi East 8.1 mph - N/A   Mostly Cloudy
10:56 AM 82.4 °F 83.9 °F 64.4 °F 54% 30.17 in 12.0 mi East 11.5 mph 17.3 mph N/A   Mostly Cloudy
11:50 AM 84.2 °F 85.6 °F 64.4 °F 51% 30.16 in 12.0 mi East 9.2 mph - N/A   Mostly Cloudy
12:50 PM 84.2 °F 85.0 °F 62.6 °F 48% 30.16 in 12.0 mi East 11.5 mph - N/A   Mostly Cloudy
1:50 PM 87.8 °F 87.6 °F 60.8 °F 40% 30.13 in 10.0 mi ENE 12.7 mph - N/A   Scattered Clouds
2:55 PM 86.0 °F 86.6 °F 62.6 °F 45% 30.12 in 10.0 mi East 707.7 mph - N/A   Mostly Cloudy
3:45 PM 86.0 °F 87.3 °F 64.4 °F 48% 30.11 in 10.0 mi East 11.5 mph - N/A   Scattered Clouds
4:45 PM 87.8 °F 88.5 °F 62.6 °F 43% 30.09 in 10.0 mi East 10.4 mph 17.3 mph N/A   Scattered Clouds
6:50 PM 84.2 °F 84.4 °F 60.8 °F 45% 30.08 in 10.0 mi East 15.0 mph 21.9 mph N/A   Scattered Clouds
7:50 PM 82.4 °F 83.9 °F 64.4 °F 54% 30.09 in 10.0 mi North - - N/A   Clear
10:15 PM 77.0 °F - 64.4 °F 65% 30.11 in 10.0 mi East 9.2 mph 16.1 mph N/A   Clear
10:35 PM 75.2 °F - 64.4 °F 69% 30.12 in 10.0 mi East 9.2 mph - N/A   Clear
10:55 PM 75.2 °F - 66.2 °F 73% 30.12 in 10.0 mi East 9.2 mph - N/A   Clear
11:15 PM 73.4 °F - 66.2 °F 78% 30.12 in 10.0 mi East 9.2 mph - N/A   Clear
11:35 PM 73.4 °F - 68.0 °F 83% 30.11 in 10.0 mi East 9.2 mph 16.1 mph N/A   Clear
11:55 PM 73.4 °F - 68.0 °F 83% 30.10 in 10.0 mi East 9.2 mph - N/A   Clear